Location: Seattle
(47.6064°N, 122.3308°W)
Time: 01:03:42
(UTC-07:00)

STRAND 1 - Pass Details

Date: 09 April 2023
Orbit: 767 x 779 km, 98.4° (Epoch: 02 June)

Event Time Altitude Azimuth Distance (km) Brightness Sun altitude
Rises 04:55:19 0° 99° (E) 3,245 ? -16.0°
Reaches altitude 10° 05:00:07 10° 58° (ENE) 2,321 ? -15.3°
Maximum altitude 05:00:44 10° 51° (NE) 2,306 ? -15.2°
Drops below altitude 10° 05:01:22 10° 44° (NE) 2,322 ? -15.1°
Sets 05:06:09 0° 4° (N) 3,253 ? -14.4°
